| time (UTC) | temp F | wind direction | speed MPH | gust MPH | rain 1hr in | rain 24hr in | rain mn in | humidity % | barometer mb |
| 20260901131522 | 58 | 147 | 0.0 | 1.0 | 0.00 | 0.00 | 0.00 | 91 | 1021.8 |
| 20260901130016 | 57 | 143 | 0.0 | 1.0 | 0.00 | 0.00 | 0.00 | 92 | 1021.8 |
| 20260901124513 | 56 | 143 | 0.0 | 0.0 | 0.00 | 0.00 | 0.00 | 94 | 1021.8 |
| 20260901123016 | 55 | 143 | 0.0 | 1.0 | 0.00 | 0.00 | 0.00 | 96 | 1021.7 |
| 20260901121506 | 54 | 143 | 0.0 | 0.0 | 0.00 | 0.00 | 0.00 | 97 | 1021.6 |
| 20260901120005 | 53 | 143 | 0.0 | 1.0 | 0.00 | 0.00 | 0.00 | 97 | 1021.5 |
| 20260901114502 | 53 | 143 | 0.0 | 0.0 | 0.00 | 0.00 | 0.00 | 97 | 1021.4 |
| 20260901113101 | 52 | 143 | 0.0 | 1.0 | 0.00 | 0.00 | 0.00 | 97 | 1021.5 |
| 20260901111603 | 51 | 143 | 0.0 | 1.0 | 0.00 | 0.00 | 0.00 | 97 | 1021.4 |
| 20260901110058 | 51 | 143 | 0.0 | 1.0 | 0.00 | 0.00 | 0.00 | 97 | 1021.2 |
| 20260901104601 | 51 | 148 | 0.0 | 0.0 | 0.00 | 0.00 | 0.00 | 97 | 1021.2 |
| 20260901103100 | 50 | 148 | 0.0 | 0.0 | 0.00 | 0.00 | 0.00 | 97 | 1021.0 |
| 20260901101606 | 50 | 148 | 0.0 | 0.0 | 0.00 | 0.00 | 0.00 | 97 | 1020.9 |
| 20260901100106 | 50 | 148 | 0.0 | 0.0 | 0.00 | 0.00 | 0.00 | 97 | 1020.9 |
| 20260901094554 | 50 | 148 | 0.0 | 0.0 | 0.00 | 0.00 | 0.00 | 97 | 1020.8 |
| 20260901093053 | 50 | 148 | 0.0 | 0.0 | 0.00 | 0.00 | 0.00 | 97 | 1020.8 |
| 20260901091553 | 50 | 148 | 0.0 | 0.0 | 0.00 | 0.00 | 0.00 | 97 | 1020.9 |
| 20260901090059 | 49 | 148 | 0.0 | 0.0 | 0.00 | 0.00 | 0.00 | 97 | 1020.8 |
| 20260901084609 | 49 | 148 | 0.0 | 0.0 | 0.00 | 0.00 | 0.00 | 97 | 1020.9 |
| 20260901083051 | 49 | 148 | 0.0 | 0.0 | 0.00 | 0.00 | 0.00 | 97 | 1020.9 |
| 20260901081550 | 49 | 148 | 0.0 | 0.0 | 0.00 | 0.00 | 0.00 | 97 | 1021.0 |
| 20260901080107 | 49 | 148 | 0.0 | 0.0 | 0.00 | 0.00 | 0.00 | 97 | 1020.8 |
| 20260901074600 | 49 | 148 | 0.0 | 0.0 | 0.00 | 0.01 | 0.00 | 97 | 1021.0 |
| 20260901073050 | 49 | 148 | 0.0 | 0.0 | 0.00 | 0.01 | 0.00 | 97 | 1021.2 |
| 20260901071545 | 49 | 148 | 0.0 | 0.0 | 0.00 | 0.01 | 0.00 | 97 | 1021.2 |
| 20260901070043 | 49 | 148 | 0.0 | 0.0 | 0.00 | 0.01 | 0.00 | 97 | 1021.3 |
| 20260901064542 | 49 | 148 | 0.0 | 0.0 | 0.00 | 0.01 | 0.00 | 97 | 1021.3 |
| 20260901063040 | 50 | 148 | 0.0 | 0.0 | 0.00 | 0.01 | 0.00 | 96 | 1021.3 |
| 20260901061539 | 50 | 148 | 0.0 | 0.0 | 0.00 | 0.01 | 0.00 | 96 | 1021.5 |
| 20260901060041 | 50 | 148 | 0.0 | 0.0 | 0.00 | 0.01 | 0.00 | 96 | 1021.5 |
| 20260901054537 | 50 | 148 | 0.0 | 0.0 | 0.00 | 0.01 | 0.00 | 96 | 1021.5 |
| 20260901053040 | 51 | 148 | 0.0 | 0.0 | 0.00 | 0.01 | 0.00 | 96 | 1021.4 |
| 20260901051533 | 51 | 148 | 0.0 | 0.0 | 0.00 | 0.01 | 0.00 | 96 | 1021.4 |
| 20260901050032 | 51 | 148 | 0.0 | 0.0 | 0.00 | 0.01 | 0.00 | 96 | 1021.3 |
| 20260901044530 | 51 | 148 | 0.0 | 0.0 | 0.00 | 0.01 | 0.00 | 96 | 1021.4 |
| 20260901043029 | 51 | 148 | 0.0 | 0.0 | 0.00 | 0.01 | 0.00 | 96 | 1021.3 |
| 20260901041527 | 51 | 148 | 0.0 | 0.0 | 0.00 | 0.01 | 0.00 | 95 | 1021.3 |
| 20260901040025 | 52 | 148 | 0.0 | 0.0 | 0.00 | 0.01 | 0.00 | 95 | 1021.1 |
| 20260901034531 | 52 | 148 | 0.0 | 0.0 | 0.00 | 0.01 | 0.01 | 95 | 1021.2 |
| 20260901033024 | 52 | 148 | 0.0 | 0.0 | 0.00 | 0.01 | 0.01 | 95 | 1021.2 |
| 20260901031526 | 52 | 148 | 0.0 | 0.0 | 0.00 | 0.01 | 0.01 | 94 | 1021.0 |
| 20260901030023 | 53 | 148 | 0.0 | 0.0 | 0.00 | 0.01 | 0.01 | 94 | 1021.3 |
| 20260901024523 | 53 | 148 | 0.0 | 0.0 | 0.00 | 0.02 | 0.01 | 93 | 1021.2 |
| 20260901023022 | 54 | 148 | 0.0 | 0.0 | 0.00 | 0.02 | 0.01 | 92 | 1021.3 |
| 20260901021529 | 54 | 148 | 0.0 | 0.0 | 0.00 | 0.02 | 0.01 | 91 | 1021.3 |
| 20260901020021 | 55 | 148 | 0.0 | 0.0 | 0.00 | 0.02 | 0.01 | 89 | 1021.4 |
| 20260901014521 | 56 | 148 | 0.0 | 0.0 | 0.00 | 0.05 | 0.01 | 89 | 1021.5 |
| 20260901013021 | 56 | 148 | 0.0 | 0.0 | 0.00 | 0.05 | 0.01 | 87 | 1021.0 |
| 20260901011520 | 56 | 148 | 0.0 | 0.0 | 0.00 | 0.05 | 0.01 | 87 | 1021.1 |
| 20260901010033 | 56 | 148 | 0.0 | 0.0 | 0.00 | 0.05 | 0.01 | 85 | 1021.1 |
| 20260901004519 | 57 | 148 | 0.0 | 0.0 | 0.00 | 0.05 | 0.01 | 83 | 1021.2 |
| 20260901003022 | 58 | 148 | 0.0 | 0.0 | 0.00 | 0.05 | 0.01 | 82 | 1021.1 |
| 20260901001526 | 58 | 148 | 0.0 | 0.0 | 0.00 | 0.05 | 0.01 | 81 | 1020.9 |
| 20260901000017 | 59 | 148 | 0.0 | 0.0 | 0.00 | 0.05 | 0.01 | 79 | 1021.0 |
| 20260831234516 | 60 | 148 | 0.0 | 0.0 | 0.00 | 0.05 | 0.01 | 75 | 1020.8 |
| 20260831233033 | 62 | 148 | 0.0 | 0.0 | 0.00 | 0.05 | 0.01 | 73 | 1020.9 |
| 20260831231520 | 64 | 148 | 0.0 | 0.0 | 0.00 | 0.05 | 0.01 | 68 | 1021.1 |
| 20260831230016 | 65 | 148 | 0.0 | 0.0 | 0.00 | 0.05 | 0.01 | 65 | 1021.0 |
| 20260831224515 | 67 | 148 | 0.0 | 0.0 | 0.00 | 0.05 | 0.01 | 62 | 1020.9 |
| 20260831223015 | 68 | 148 | 0.0 | 2.0 | 0.00 | 0.05 | 0.01 | 58 | 1021.0 |
| 20260831221514 | 69 | 136 | 0.0 | 4.0 | 0.00 | 0.05 | 0.01 | 54 | 1020.9 |
| 20260831220014 | 70 | 176 | 0.0 | 2.0 | 0.00 | 0.05 | 0.01 | 53 | 1020.6 |
| 20260831214514 | 71 | 126 | 0.0 | 1.0 | 0.00 | 0.05 | 0.01 | 55 | 1020.8 |
| 20260831213015 | 72 | 111 | 0.0 | 6.0 | 0.00 | 0.05 | 0.01 | 51 | 1020.9 |
| 20260831211513 | 72 | 143 | 1.0 | 4.0 | 0.00 | 0.05 | 0.01 | 48 | 1020.8 |
| 20260831210011 | 73 | 148 | 0.0 | 2.0 | 0.00 | 0.05 | 0.01 | 52 | 1020.9 |
| 20260831204512 | 74 | 154 | 1.0 | 6.0 | 0.00 | 0.05 | 0.01 | 46 | 1020.9 |
| 20260831203012 | 76 | 263 | 0.0 | 1.0 | 0.00 | 0.05 | 0.01 | 47 | 1020.9 |
| 20260831201521 | 77 | 264 | 0.0 | 2.0 | 0.00 | 0.05 | 0.01 | 42 | 1020.8 |
| 20260831200011 | 77 | 277 | 0.0 | 3.0 | 0.00 | 0.05 | 0.01 | 39 | 1020.9 |
| 20260831194510 | 77 | 72 | 0.0 | 1.0 | 0.00 | 0.05 | 0.01 | 43 | 1021.0 |
| 20260831193008 | 78 | 105 | 0.0 | 3.0 | 0.00 | 0.05 | 0.01 | 35 | 1021.2 |
| 20260831191507 | 78 | 115 | 0.0 | 2.0 | 0.00 | 0.05 | 0.01 | 35 | 1021.3 |
| 20260831190010 | 79 | 188 | 0.0 | 2.0 | 0.00 | 0.05 | 0.01 | 35 | 1021.2 |
| 20260831184505 | 77 | 200 | 0.0 | 3.0 | 0.00 | 0.05 | 0.01 | 36 | 1021.3 |
| 20260831183005 | 77 | 103 | 1.0 | 2.0 | 0.00 | 0.05 | 0.01 | 40 | 1021.5 |
| 20260831181505 | 76 | 99 | 0.0 | 3.0 | 0.00 | 0.05 | 0.01 | 42 | 1021.6 |
| 20260831180001 | 77 | 259 | 1.0 | 3.0 | 0.00 | 0.05 | 0.01 | 38 | 1021.9 |
| 20260831174559 | 76 | 239 | 0.0 | 2.0 | 0.00 | 0.05 | 0.01 | 41 | 1022.1 |
| 20260831173056 | 75 | 63 | 0.0 | 3.0 | 0.00 | 0.05 | 0.01 | 43 | 1022.3 |
| 20260831171555 | 75 | 199 | 1.0 | 3.0 | 0.00 | 0.05 | 0.01 | 43 | 1022.3 |
| 20260831170054 | 74 | 79 | 1.0 | 3.0 | 0.00 | 0.05 | 0.01 | 47 | 1022.5 |
| 20260831164551 | 74 | 65 | 0.0 | 3.0 | 0.00 | 0.05 | 0.01 | 48 | 1022.6 |
| 20260831163049 | 73 | 27 | 0.0 | 3.0 | 0.00 | 0.05 | 0.01 | 51 | 1022.8 |
| 20260831161551 | 71 | 166 | 0.0 | 4.0 | 0.00 | 0.05 | 0.01 | 52 | 1023.0 |
| 20260831160045 | 72 | 117 | 0.0 | 4.0 | 0.00 | 0.05 | 0.01 | 50 | 1023.2 |
| 20260831154544 | 70 | 217 | 1.0 | 4.0 | 0.00 | 0.05 | 0.01 | 47 | 1023.3 |
| 20260831153042 | 71 | 252 | 0.0 | 3.0 | 0.00 | 0.05 | 0.01 | 52 | 1023.5 |
| 20260831151538 | 69 | 97 | 1.0 | 3.0 | 0.00 | 0.05 | 0.01 | 52 | 1023.6 |
| 20260831150037 | 69 | 71 | 1.0 | 6.0 | 0.00 | 0.05 | 0.01 | 56 | 1023.8 |
| 20260831144534 | 68 | 327 | 0.0 | 4.0 | 0.00 | 0.05 | 0.01 | 63 | 1023.8 |
| 20260831143034 | 67 | 34 | 1.0 | 4.0 | 0.00 | 0.05 | 0.01 | 60 | 1023.8 |
| 20260831141529 | 67 | 130 | 0.0 | 2.0 | 0.00 | 0.05 | 0.01 | 66 | 1023.9 |
| 20260831140026 | 65 | 104 | 0.0 | 2.0 | 0.00 | 0.05 | 0.01 | 74 | 1023.7 |
| 20260831134524 | 65 | 95 | 0.0 | 3.0 | 0.00 | 0.05 | 0.01 | 75 | 1023.7 |
| 20260831133027 | 63 | 118 | 0.0 | 3.0 | 0.00 | 0.05 | 0.01 | 82 | 1023.5 |